Weather History for Caslav, Czech Republic

Change the Weather History Date:

Wednesday, February 13, 2013

  Actual Average Record
Temperature  
Mean Temperature 29 °F -  
Max Temperature 30 °F - - ()
Min Temperature 28 °F - - ()
Degree Days  
Heating Degree Days 36    
Moisture  
Dew Point 27 °F    
Average Humidity 95    
Maximum Humidity 100    
Minimum Humidity 86    
Precipitation  
Precipitation 0.00 in - - ()
Sea Level Pressure  
Sea Level Pressure 30.07 in    
Wind  
Wind Speed 5 mph ()    
Max Wind Speed 12 mph    
Max Gust Speed -    
Visibility 2.1 miles    
Events Fog , Snow    
T = Trace of Precipitation, MM = Missing Value Source: Averaged Metar Reports

Daily Weather History Graph

Daily Weather History Graph

Search for Another Location

Airport:

Trip Planner

Search our weather history database for the weather conditions in past years. The results will help you decide how hot, cold, wet, or windy it might be!

Date:

Astronomy

Feb. 13, 2013 Rise Set
Actual Time 7:12 AM CET 5:13 PM CET
Civil Twilight 6:38 AM CET 5:47 PM CET
Nautical Twilight 6:01 AM CET 6:25 PM CET
Astronomical Twilight 5:23 AM CET 7:02 PM CET
Moon 8:07 AM CET (2/13) 9:27 PM CET (2/13)
Length of Visible Light 11h 08m
Length of Day
10h 01m
Waxing Crescent, 12% of the Moon is Illuminated
Feb 13
Waxing Crescent
Feb 17
First Quarter
Feb 25
Full
Mar 4
Last Quarter
Mar 11
New

Hourly Weather History & Observations

Time (CET) Temp. Windchill Dew Point Humidity Pressure Visibility Wind Dir Wind Speed Gust Speed Precip Events Conditions
12:00 AM 28.4 °F - 26.6 °F 93% 29.92 in 0.6 mi Calm Calm - N/A   Overcast
12:15 AM 28.4 °F - 28.4 °F 100% 29.92 in 0.4 mi NW 1.2 mph - N/A Fog Light Freezing Fog
12:49 AM 28.4 °F - 26.6 °F 93% 29.92 in 0.5 mi West 2.3 mph - N/A Fog Light Freezing Fog
1:00 AM 28.4 °F - 26.6 °F 93% 29.92 in 0.5 mi West 2.3 mph - N/A Fog Light Freezing Fog
1:23 AM 28.4 °F - 26.6 °F 93% 29.92 in 1.2 mi West 2.3 mph - N/A   Overcast
2:00 AM 28.4 °F - 26.6 °F 93% 29.95 in 1.2 mi WSW 1.2 mph - N/A   Overcast
3:00 AM 28.4 °F - 26.6 °F 93% 29.95 in 2.2 mi NW 2.3 mph - N/A   Overcast
4:02 AM 28.4 °F 23.3 °F 26.6 °F 93% 29.95 in 3.1 mi WNW 4.6 mph - N/A   Overcast
5:00 AM 28.4 °F - 26.6 °F 93% 29.98 in 3.7 mi West 2.3 mph - N/A   Overcast
6:00 AM 28.4 °F 23.3 °F 28.4 °F 100% 29.98 in 3.7 mi WNW 4.6 mph - N/A   Overcast
6:11 AM 28.4 °F 22.2 °F 28.4 °F 100% 30.01 in 2.8 mi WNW 5.8 mph - N/A   Overcast
6:49 AM 28.4 °F 22.2 °F 28.4 °F 100% 30.01 in 0.4 mi WNW 5.8 mph - N/A Fog Light Freezing Fog
7:00 AM 28.4 °F 22.2 °F 28.4 °F 100% 30.01 in 0.3 mi WNW 5.8 mph - N/A Fog Light Freezing Fog
9:00 AM 28.4 °F 20.4 °F 28.4 °F 100% 30.06 in 0.5 mi West 8.1 mph - N/A Fog Light Freezing Fog
9:15 AM 28.4 °F 20.4 °F 28.4 °F 100% 30.06 in 0.6 mi WNW 8.1 mph - N/A   Overcast
10:00 AM 28.4 °F 20.4 °F 28.4 °F 100% 30.06 in 0.9 mi WNW 8.1 mph - N/A   Overcast
10:30 AM 28.4 °F 19.1 °F 28.4 °F 100% 30.09 in 1.9 mi WNW 10.4 mph - N/A   Overcast
11:00 AM 28.4 °F 19.1 °F 28.4 °F 100% 30.09 in 1.9 mi WNW 10.4 mph - N/A   Overcast
12:00 PM 30.2 °F 21.3 °F 26.6 °F 86% 30.12 in 2.2 mi WNW 10.4 mph - N/A   Overcast
1:00 PM 30.2 °F 20.8 °F 28.4 °F 93% 30.12 in 2.2 mi WNW 11.5 mph - N/A   Overcast
2:00 PM 30.2 °F 21.3 °F 28.4 °F 93% 30.15 in 2.2 mi WNW 10.4 mph - N/A   Overcast
3:00 PM 30.2 °F 21.9 °F 28.4 °F 93% 30.15 in 1.6 mi WNW 9.2 mph - N/A Snow Light Snow
4:00 PM 30.2 °F 22.6 °F 28.4 °F 93% 30.18 in 1.2 mi NW 8.1 mph - N/A Snow Light Snow
5:00 PM 30.2 °F 21.9 °F 26.6 °F 86% 30.18 in 1.9 mi WNW 9.2 mph - N/A Snow Light Snow
6:00 PM 28.4 °F 19.1 °F 26.6 °F 93% 30.21 in 1.9 mi WNW 10.4 mph - N/A   Overcast
6:14 PM 28.4 °F 19.1 °F 26.6 °F 93% 30.21 in 4.3 mi NW 10.4 mph - N/A   Overcast
7:00 PM 28.4 °F 19.1 °F 26.6 °F 93% 30.21 in 4.3 mi NW 10.4 mph - N/A   Overcast
8:00 PM 28.4 °F 19.7 °F 26.6 °F 93% 30.21 in 4.3 mi NW 9.2 mph - N/A   Mostly Cloudy
9:00 PM 28.4 °F 19.1 °F 26.6 °F 93% 30.24 in 4.3 mi NW 10.4 mph - N/A   Mostly Cloudy
10:00 PM 28.4 °F 20.4 °F 26.6 °F 93% 30.24 in 4.3 mi NW 8.1 mph - N/A   Mostly Cloudy
11:00 PM 28.4 °F 20.4 °F 26.6 °F 93% 30.27 in 4.3 mi NW 8.1 mph - N/A   Mostly Cloudy